Regional Weather Roundup
Issued by NWS

Home | Current Version | Previous Version | Text Only | Print | Product List | Glossary Off
Versions: 1 2 3 4 5 6 7 8 9 10 11 12 13 14 15 16 17 18 19 20 21 22 23 24 25 26 27 28 29 30 31 32 33 34 35 36 37 38 39 40 41 42 43 44 45 46 47 48 49 50

000
ASUS45 KABQ 250701
RWRNM
NEW MEXICO REGIONAL WEATHER ROUNDUP
NATIONAL WEATHER SERVICE ALBUQUERQUE NM
100 AM MDT THU AUG 25 2016

NOTE: "FAIR" MEANS FEW OR NO CLOUDS BELOW 12,000 FEET AGL WITH NO
       SIGNIFICANT WEATHER OR OBSTRUCTIONS TO VISION.

      THIS PRODUCT IS RELEASED AS TWO VERSIONS.  ONE VERSION NEAR
      THE TOP OF THE HOUR CONTAINING PRELIMINARY DATA FROM ALBUQUERQUE
      AND OTHER STATIONS.  A FINAL VERSION WITH ADDITIONAL DATA IS
      ISSUED ABOUT 10 MINUTES AFTER THE HOUR.

NMZ501-503-504-510>518-250800-
NORTHWEST PLATEAU/NORTHCENTRAL MOUNTAINS

CITY           SKY/WX    TMP DP  RH WIND       PRES   REMARKS
FARMINGTON     FAIR      60  46  59 E7        30.21S
LOS ALAMOS     CLOUDY    56  43  61 CALM      30.33S
SANTA FE       CLOUDY    59  49  69 CALM      30.28R
TAOS           FAIR      50  43  76 NE3       30.34R
ANGEL FIRE     CLOUDY    42  41  97 CALM      30.42S

$$
NMZ402-403-502-505>509-250800-
WESTCENTRAL MOUNTAINS/SOUTHWEST MOUNTAINS

CITY           SKY/WX    TMP DP  RH WIND       PRES   REMARKS
GALLUP         FAIR      55  45  68 SE6       30.29S
GRANTS         FAIR      52  44  73 S6        30.32S
SILVER CITY    FAIR      62  50  64 NW10      30.21S

$$
NMZ407-409-411-412-250800-
SOUTHERN DESERTS

CITY           SKY/WX    TMP DP  RH WIND       PRES   REMARKS
DEMING         FAIR      68  52  56 W6        30.12F
LAS CRUCES     FAIR      68  53  57 E5        30.16R
HOLLOMAN AFB   FAIR      66  57  73 W7        30.10R
ALAMOGORDO     FAIR      72  50  46 CALM      30.12R
T OR C         FAIR      66  53  63 N3        30.16F

$$
NMZ519>523-250800-
CENTRAL VALLEYS/CENTRAL HIGHLANDS

CITY           SKY/WX    TMP DP  RH WIND       PRES   REMARKS
ALBUQUERQUE    FAIR      65  49  56 W6        30.22S
DOUBLE EAGLE   FAIR      54  45  71 NW6       30.25S
MORIARTY ARPT  FAIR      53  49  86 CALM      30.29S
CLINES CORNERS FAIR      52  46  80 N3        30.33S
BELEN          FAIR      60  49  66 W6        30.22S
SOCORRO        FAIR      63  49  61 NW13      30.20R

$$
NMZ524>526-539-540-250800-
SOUTHCENTRAL MOUNTAINS

CITY           SKY/WX    TMP DP  RH WIND       PRES   REMARKS
RUIDOSO          N/A     57  50  77 SW9       30.33R

$$
NMZ527>531-250800-
NORTHEAST HIGHLANDS/NORTHEAST PLAINS

CITY           SKY/WX    TMP DP  RH WIND       PRES   REMARKS
LAS VEGAS      FAIR      49  46  90 N7        30.33R
RATON          FAIR      53  47  79 N7        30.29S
CLAYTON        FAIR      58  57  97 N9        30.22S

$$
NMZ532>537-250800-
EASTCENTRAL PLAINS

CITY           SKY/WX    TMP DP  RH WIND       PRES   REMARKS
TUCUMCARI      FAIR      64  59  83 E3        30.17S
CANNON AFB     FAIR      64  55  72 NE10      30.18F
CLOVIS AIRPORT FAIR      61  52  72 N8        30.18S

$$
NMZ028-029-538-250800-
SOUTHEAST PLAINS

CITY           SKY/WX    TMP DP  RH WIND       PRES   REMARKS
ROSWELL        MOCLDY    66  63  90 E6        30.11S
ARTESIA        FAIR      66  66 100 CALM      30.11F
CARLSBAD       FAIR      67  63  87 SE10      30.08S
HOBBS          FAIR      63  63 100 E3        30.15S


$$



USA.gov is the U.S. government's official web portal to all federal, state and local government web resources and services.